| Date | Time | Temp. (oF) | Dew Point (oF) | Rel. Hum. (%) | Press. (in.) | Wind Dir. | Wind Speed (mph) | Hourly Rainfall (in.) |
|
|---|---|---|---|---|---|---|---|---|---|
| 1 | 01/26 | 00:00 | 25 | 10 | 54 | 30.20 | SSW | 6 | 0.00 |
| 2 | 01/25 | 23:00 | 25 | 10 | 54 | 30.21 | S | 4 | 0.00 |
| 3 | 01/25 | 22:00 | 26 | 10 | 51 | 30.22 | SSW | 2 | 0.00 |
| 4 | 01/25 | 21:00 | 27 | 10 | 50 | 30.22 | S | 7 | 0.00 |
| 5 | 01/25 | 20:00 | 29 | 12 | 50 | 30.23 | SSW | 7 | 0.00 |
| 6 | 01/25 | 19:00 | 28 | 11 | 50 | 30.24 | S | 3 | 0.00 |
| 7 | 01/25 | 18:00 | 28 | 10 | 48 | 30.24 | SSW | 3 | 0.00 |
| 8 | 01/25 | 17:00 | 28 | 10 | 47 | 30.24 | SSW | 3 | 0.00 |
| 9 | 01/25 | 16:00 | 27 | 8 | 46 | 30.25 | SSW | 9 | 0.00 |
| 10 | 01/25 | 15:00 | 27 | 8 | 46 | 30.25 | WSW | 5 | 0.00 |
| 11 | 01/25 | 14:00 | 27 | 8 | 45 | 30.24 | SSE | 6 | 0.00 |
| 12 | 01/25 | 13:00 | 27 | 8 | 45 | 30.28 | SW | 9 | 0.00 |
| 13 | 01/25 | 12:00 | 25 | 8 | 50 | 30.30 | SW | 15 | 0.00 |
| 14 | 01/25 | 11:00 | 23 | 8 | 54 | 30.34 | WSW | 4 | 0.00 |
| 15 | 01/25 | 10:00 | 21 | 9 | 60 | 30.34 | SW | 3 | 0.00 |
| 16 | 01/25 | 09:00 | 19 | 9 | 66 | 30.34 | SSW | 3 | 0.00 |
| 17 | 01/25 | 08:00 | 17 | 8 | 70 | 30.34 | SSW | 8 | 0.00 |
| 18 | 01/25 | 07:00 | 17 | 9 | 71 | 30.34 | SW | 2 | 0.00 |
| 19 | 01/25 | 06:00 | 17 | 9 | 71 | 30.33 | WSW | 4 | 0.00 |
| 20 | 01/25 | 05:00 | 16 | 8 | 71 | 30.32 | WSW | 3 | 0.00 |
| 21 | 01/25 | 04:00 | 17 | 9 | 71 | 30.32 | W | 4 | 0.00 |
| 22 | 01/25 | 03:00 | 16 | 9 | 74 | 30.34 | W | 2 | 0.00 |
| 23 | 01/25 | 02:00 | 15 | 8 | 75 | 30.34 | WSW | 2 | 0.00 |
| 24 | 01/25 | 01:00 | 15 | 8 | 74 | 30.35 | S | 2 | 0.00 |